{"data":{"norad_id":67808,"epoch":"2026-05-25T02:34:58.975392Z","epoch_age_seconds":58920,"freshness":"FRESH","line1":"1 67808U 26032M   26145.10762703  .00018253  00000+0  56622-3 0  9998","line2":"2 67808  97.2853 333.2287 0001549  91.4925 268.6495 15.33452480 16677","mean_motion":15.3345248,"eccentricity":0.0001549,"inclination_deg":97.2853,"raan_deg":333.2287,"arg_perigee_deg":91.4925,"mean_anomaly_deg":268.6495,"bstar":0.00056622,"rev_number":1667,"period_min":93.905746593465,"perigee_km":464.46083673952,"apogee_km":466.58100196293,"semimajor_km":6843.6579193512,"source":"CELESTRAK","updated_at":"2026-05-25T13:38:21.694158Z"}}